This is the latest recevied weather packets stored in our database for station/object EA1IXY-2. If no packets are shown the sender has not sent any weather packets the latest 10 day(s).
| Time | Temp. | Humidity | Pressure | Rain* | Wind** | Luminosity | Snow |
|---|---|---|---|---|---|---|---|
| 1778063570 | 38.33° C | 15% | 928.5 hPa | - | - | - | - |
| 1778062658 | 38.89° C | 15% | 928.4 hPa | - | - | - | - |
| 1778061758 | 38.89° C | 15% | 928.4 hPa | - | - | - | - |
| 1778060858 | 38.89° C | 14% | 928.5 hPa | - | - | - | - |
| 1778059958 | 38.89° C | 14% | 928.5 hPa | - | - | - | - |
| 1778059058 | 38.89° C | 14% | 928.5 hPa | - | - | - | - |
| 1778058158 | 38.89° C | 14% | 928.2 hPa | - | - | - | - |
| 1778057258 | 38.33° C | 14% | 928 hPa | - | - | - | - |
| 1778056358 | 38.89° C | 14% | 928.5 hPa | - | - | - | - |
| 1778055458 | 38.33° C | 14% | 928.5 hPa | - | - | - | - |
| 1778054558 | 38.33° C | 13% | 928.6 hPa | - | - | - | - |
| 1778053657 | 33.89° C | 15% | 928.6 hPa | - | - | - | - |
| 1778052757 | 32.78° C | 15% | 927.2 hPa | - | - | - | - |
| 1778051845 | 35.56° C | 15% | 928.5 hPa | - | - | - | - |
| 1778050945 | 36.11° C | 18% | 928.5 hPa | - | - | - | - |
| 1778050045 | 37.78° C | 18% | 928.4 hPa | - | - | - | - |
| 1778049145 | 37.78° C | 17% | 928.3 hPa | - | - | - | - |
| 1778048245 | 38.33° C | 18% | 928.4 hPa | - | - | - | - |
| 1778046445 | 37.78° C | 17% | 928.3 hPa | - | - | - | - |
| 1778045545 | 38.33° C | 17% | 928.3 hPa | - | - | - | - |
| 1778044645 | 37.78° C | 17% | 928.2 hPa | - | - | - | - |
| 1778043745 | 37.78° C | 18% | 928.3 hPa | - | - | - | - |
| 1778042844 | 38.33° C | 17% | 928.3 hPa | - | - | - | - |
| 1778041944 | 36.67° C | 18% | 926.9 hPa | - | - | - | - |
| 1778041032 | 37.78° C | 18% | 928.2 hPa | - | - | - | - |
* Rain since midnight (hover to see other rain measurements)
** Current wind speed in m/s (hover to see current wind gust speed)